Barking Sands, HI

1:36 AM HST on March 28, 2017 (GMT -1000)
Barking Sands PMRF

Weather History for PHBK - February, 2013

Change the Weather History Date:

Monday, February 25, 2013

  Actual Average Record
Temperature  
Mean Temperature 72 °F -  
Max Temperature 81 °F 80 °F 116 °F (2017)
Min Temperature 64 °F 59 °F 54 °F (1970)
Cooling Degree Days 8    
Growing Degree Days 22 (Base 50)    
Moisture  
Dew Point 58 °F    
Average Humidity 61    
Maximum Humidity 81    
Minimum Humidity 34    
Precipitation  
Precipitation 0.00 in - - ()
Sea Level Pressure  
Sea Level Pressure 30.12 in    
Wind  
Wind Speed 4 mph (ENE)    
Max Wind Speed 14 mph    
Max Gust Speed 20 mph    
Visibility 10 miles    
Events      
Averages and records for this station are not official NWS values.
T = Trace of Precipitation, MM = Missing Value Source: NWS Daily Summary

Daily Weather History Graph

Daily Weather History Graph

Search for Another Location

Airport or City:

Trip Planner

Search our weather history database for the weather conditions in past years. The results will help you decide how hot, cold, wet, or windy it might be!

Date:

Astronomy

Feb. 25, 2013 Rise Set
Actual Time 7:02 AM HST 6:41 PM HST
Civil Twilight 6:40 AM HST 7:04 PM HST
Nautical Twilight 6:14 AM HST 7:30 PM HST
Astronomical Twilight 5:48 AM HST 7:56 PM HST
Moon 6:57 PM HST (2/25) 6:45 AM HST (2/25)
Length of Visible Light 12h 23m
Length of Day
11h 38m
Full, 100% of the Moon is Illuminated
Feb 25
Full
Mar 4
Last Quarter
Mar 11
New
Mar 19
First Quarter
Mar 26
Full

Hourly Weather History & Observations

Time (HST) Temp. Heat Index Dew Point Humidity Pressure Visibility Wind Dir Wind Speed Gust Speed Precip Events Conditions
12:56 AM 66.0 °F - 54.0 °F 65% 30.14 in 10.0 mi Calm Calm - N/A   Partly Cloudy
1:56 AM 66.9 °F - 57.0 °F 70% 30.13 in 10.0 mi East 3.5 mph - N/A   Scattered Clouds
2:56 AM 68.0 °F - 59.0 °F 73% 30.11 in 10.0 mi ESE 3.5 mph - N/A   Partly Cloudy
3:56 AM 66.9 °F - 59.0 °F 76% 30.10 in 10.0 mi East 4.6 mph - N/A   Clear
4:56 AM 66.9 °F - 61.0 °F 81% 30.10 in 10.0 mi ENE 4.6 mph - N/A   Clear
5:56 AM 64.9 °F - 59.0 °F 81% 30.09 in 10.0 mi East 3.5 mph - N/A   Clear
6:56 AM 64.0 °F - 55.9 °F 75% 30.12 in 10.0 mi ESE 3.5 mph - N/A   Clear
7:56 AM 69.1 °F - 61.0 °F 75% 30.14 in 10.0 mi Calm Calm - N/A   Scattered Clouds
8:56 AM 73.9 °F - 63.0 °F 68% 30.16 in 10.0 mi Calm Calm - N/A   Partly Cloudy
9:56 AM 80.1 °F 79.9 °F 53.1 °F 39% 30.17 in 10.0 mi NNE 10.4 mph 19.6 mph N/A   Partly Cloudy
10:56 AM 81.0 °F - 50.0 °F 34% 30.15 in 10.0 mi SW 9.2 mph 17.3 mph N/A   Clear
11:21 AM 78.8 °F - 57.2 °F 47% 30.13 in 10.0 mi SW 13.8 mph - N/A   Partly Cloudy
11:56 AM 79.0 °F - 57.0 °F 47% 30.13 in 10.0 mi West 9.2 mph - N/A   Partly Cloudy
12:56 PM 81.0 °F 80.8 °F 55.9 °F 42% 30.10 in 10.0 mi NNE 8.1 mph 18.4 mph N/A   Clear
1:56 PM 81.0 °F 81.0 °F 57.0 °F 44% 30.09 in 10.0 mi WNW 8.1 mph 18.4 mph N/A   Clear
2:56 PM 81.0 °F 81.0 °F 57.0 °F 44% 30.07 in 10.0 mi West 9.2 mph - N/A   Mostly Cloudy
3:56 PM 80.1 °F 80.6 °F 57.9 °F 47% 30.07 in 10.0 mi NW 5.8 mph - N/A   Mostly Cloudy
4:56 PM 80.1 °F 80.4 °F 57.0 °F 45% 30.07 in 10.0 mi NNW 9.2 mph - N/A   Partly Cloudy
5:56 PM 78.1 °F - 57.0 °F 48% 30.08 in 10.0 mi South 6.9 mph - N/A   Partly Cloudy
6:56 PM 75.9 °F - 61.0 °F 60% 30.11 in 10.0 mi WNW 4.6 mph - N/A   Clear
7:56 PM 72.0 °F - 59.0 °F 64% 30.13 in 10.0 mi NE 4.6 mph - N/A   Clear
8:56 PM 70.0 °F - 60.1 °F 71% 30.15 in 10.0 mi SE 3.5 mph - N/A   Clear
9:56 PM 71.1 °F - 61.0 °F 70% 30.17 in 10.0 mi Calm Calm - N/A   Clear
10:56 PM 69.1 °F - 63.0 °F 81% 30.17 in 10.0 mi NE 3.5 mph - N/A   Scattered Clouds
11:56 PM 68.0 °F - 59.0 °F 73% 30.17 in 10.0 mi East 3.5 mph - N/A   Clear